Starlink 31792

operational
NORAD ID: 60132 Int'l Des: 2024-118 Owner: SPXS Country: US Constellation: starlink
LEOCIRCULAR

关于 Starlink 31792

正在加载描述...

实时位置

正在加载3D地球...

即将过境

高度历史

Altitude vs Time

uPlot chart will show altitude changes over time

两行轨道根数

1 60132U 24118V 25352.13982695 -.00001854 00000-0 -50484-4 0 9993
2 60132 53.1621 43.1276 0001300 95.6059 264.5090 15.30190105 83241
Epoch: Dec 18, 2025 • Age: 12 hours

当前状态

高度 478.2 km
速度 7.63 km/s
星下点 40.71°N, 129.57°W
发射日期 Jun 24, 2024
运行时间 1.4 years
类型 internet

技术详情

分类 Payload
质量 730.00 kg
干质量 700.00 kg
总质量 730.00 kg
长度 0.30 m
直径 4.10 m
跨度 29.00 m
形状 Box + pan
制造商 SPXS
平台类型 Starlink V2M
阶段状态 In Orbit
所有者/国家 SPXS/US

大型星座

Loading constellations...